User: anonymous   Login
Location: Carthage
(33.8834°N, 106.6595°W)
Time: 01:10:21
(UTC+00:00)
Language:

Cosmos 1025 Rocket - Orbit

View from above orbital plane
View from above orbital plane
View from above satellite
View from above satellite

Ground track
Ground track

The orbit is defined by the following mean orbital elements,

1 10974U          26105.73867127 +.00000000 +00000-0 +25017-4 0 00008
2 10974  82.4834 351.8120 0018028  86.5465 273.7815 14.90051288    06
Epoch (UTC): 15 April 2026 17:43:41
Eccentricity: 0.0018028
inclination: 82.4834°
perigee height: 585 km
apogee height: 610 km
right ascension of ascending node: 351.8120°
argument of perigee: 86.5465°
revolutions per day: 14.90051288
mean anomaly at epoch: 273.7815°

The dashed part of the orbit path shows where the satellite is in the earth's shadow,  

DLR